KCLE

Cleveland Hopkins International Airport

Airport
ICAO code
KCLE
IATA Code
CLE
Summary
ICAO Region
NAM
ICAO Territory
Location

Hopkins, OHIO

Serving
Cleveland
Elevation
800 ft
Coordinates
41° 24' 37" N , 81° 51' 10" W
KCC
Airport WX
Lake Effect Snow
Metar
KCLE 142351Z 03010KT 10SM CLR 23/09 A3000 RMK AO2 SLP169 T02280094 10267 20228 53014

Description

Cleveland Hopkins International Airport is a public airport located 9 nm southwest of the central business district of Cleveland, a city in Cuyahoga County, Ohio, United States.

Airport map

Aerial View

SKYbrary Partners:

Safety knowledge contributed by: